• In Moldova, Republic
  • List of Countries
  • For 7 days
  • Water Temperature
  • Satellite Maps
  • Weather Map
  • Weather Widgets
  • user-avatar
    Login

    Hourly Weather Shkoder

    Today, 20 February, Tuesday

    Time Temperature Precipitation Wind Pressure Humidity
    00:00 +4°C° 0.4 mm 3 mps 736 mmHg 89%
    01:00 +5°C° 0 mm 3 mps 735 mmHg 88%
    02:00 +5°C° 0.9 mm 3 mps 735 mmHg 89%
    03:00 +6°C° 0.9 mm 2 mps 735 mmHg 90%
    04:00 +6°C° 0.9 mm 2 mps 734 mmHg 91%
    05:00 +6°C° 0.9 mm 2 mps 734 mmHg 91%
    06:00 +6°C° 0.9 mm 2 mps 734 mmHg 91%
    07:00 +5°C° 0 mm 3 mps 734 mmHg 90%
    08:00 +5°C° 0.7 mm 3 mps 734 mmHg 89%
    09:00 +7°C° 0.7 mm 2 mps 734 mmHg 89%
    10:00 +7°C° 0.7 mm 2 mps 733 mmHg 88%
    11:00 +8°C° 1.5 mm 2 mps 733 mmHg 89%
    12:00 +8°C° 1.5 mm 2 mps 733 mmHg 89%
    13:00 +8°C° 1.5 mm 2 mps 732 mmHg 89%
    14:00 +8°C° 2.3 mm 2 mps 732 mmHg 91%
    15:00 +7°C° 2.3 mm 2 mps 732 mmHg 92%
    16:00 +7°C° 2.3 mm 2 mps 731 mmHg 93%
    17:00 +7°C° 1.8 mm 2 mps 731 mmHg 93%
    18:00 +7°C° 1.8 mm 2 mps 731 mmHg 92%
    19:00 +7°C° 1.8 mm 2 mps 731 mmHg 92%
    20:00 +6°C° 1.3 mm 2 mps 731 mmHg 91%
    21:00 +6°C° 1.3 mm 2 mps 731 mmHg 91%
    22:00 +6°C° 1.3 mm 2 mps 731 mmHg 90%
    23:00 +6°C° 0.8 mm 2 mps 731 mmHg 89%

    Tomorrow, 21 February, Wednesday

    Time Temperature Precipitation Wind Pressure Humidity
    00:00 +5°C° 0.8 mm 3 mps 731 mmHg 89%
    01:00 +5°C° 0.8 mm 3 mps 731 mmHg 88%
    02:00 +5°C° 0.6 mm 3 mps 731 mmHg 88%
    03:00 +5°C° 0.6 mm 3 mps 731 mmHg 88%
    04:00 +5°C° 0.6 mm 3 mps 731 mmHg 88%
    05:00 +5°C° 0.4 mm 3 mps 731 mmHg 88%
    06:00 +5°C° 0.4 mm 3 mps 731 mmHg 88%
    07:00 +5°C° 0.4 mm 3 mps 731 mmHg 88%
    08:00 +7°C° 0.1 mm 3 mps 731 mmHg 86%
    09:00 +8°C° 0.1 mm 3 mps 731 mmHg 85%
    10:00 +9°C° 0.1 mm 3 mps 731 mmHg 83%
    11:00 +9°C° 0.1 mm 3 mps 731 mmHg 81%
    12:00 +10°C° 0.1 mm 3 mps 731 mmHg 79%
    13:00 +11°C° 0.1 mm 4 mps 730 mmHg 78%
    14:00 +10°C° 0.1 mm 3 mps 730 mmHg 78%
    15:00 +10°C° 0.1 mm 3 mps 730 mmHg 79%
    16:00 +10°C° 0.1 mm 3 mps 730 mmHg 79%
    17:00 +9°C° 0.2 mm 3 mps 730 mmHg 81%
    18:00 +8°C° 0.2 mm 3 mps 731 mmHg 82%
    19:00 +8°C° 0.2 mm 3 mps 731 mmHg 83%
    20:00 +7°C° 0.1 mm 3 mps 731 mmHg 83%
    21:00 +7°C° 0.1 mm 3 mps 731 mmHg 83%
    22:00 +7°C° 0.1 mm 3 mps 731 mmHg 83%
    23:00 +7°C° 0.5 mm 3 mps 731 mmHg 84%

    Day after tomorrow, 22 February, Thursday

    Time Temperature Precipitation Wind Pressure Humidity
    00:00 +7°C° 0.5 mm 3 mps 731 mmHg 85%
    01:00 +7°C° 0.5 mm 3 mps 731 mmHg 85%
    02:00 +7°C° 0.8 mm 3 mps 731 mmHg 87%
    03:00 +7°C° 0.8 mm 3 mps 732 mmHg 88%
    04:00 +6°C° 0.8 mm 2 mps 732 mmHg 89%
    05:00 +6°C° 0.3 mm 2 mps 732 mmHg 89%
    06:00 +6°C° 0.3 mm 2 mps 732 mmHg 88%
    07:00 +6°C° 0.3 mm 2 mps 732 mmHg 87%
    08:00 +7°C° 0.2 mm 2 mps 732 mmHg 85%
    09:00 +8°C° 0.2 mm 2 mps 733 mmHg 83%
    10:00 +9°C° 0.2 mm 2 mps 733 mmHg 81%
    11:00 +10°C° 0.2 mm 2 mps 733 mmHg 79%
    12:00 +10°C° 0.2 mm 2 mps 732 mmHg 76%
    13:00 +12°C° 0.2 mm 2 mps 732 mmHg 74%
    14:00 +12°C° 0.3 mm 2 mps 732 mmHg 75%
    15:00 +12°C° 0.3 mm 2 mps 732 mmHg 77%
    16:00 +12°C° 0.3 mm 2 mps 732 mmHg 78%
    17:00 +10°C° 0.4 mm 2 mps 733 mmHg 81%
    18:00 +9°C° 0.4 mm 2 mps 733 mmHg 83%
    19:00 +9°C° 0.4 mm 2 mps 733 mmHg 86%
    20:00 +8°C° 0.6 mm 2 mps 734 mmHg 86%
    21:00 +8°C° 0.6 mm 2 mps 734 mmHg 87%
    22:00 +8°C° 0.6 mm 2 mps 734 mmHg 87%
    23:00 +8°C° 0.5 mm 2 mps 734 mmHg 86%

    23 February, Friday

    Time Temperature Precipitation Wind Pressure Humidity
    00:00 +7°C° 0.5 mm 2 mps 734 mmHg 86%
    01:00 +7°C° 0.5 mm 2 mps 734 mmHg 86%
    02:00 +7°C° 0.3 mm 2 mps 734 mmHg 85%
    03:00 +7°C° 0.3 mm 2 mps 734 mmHg 84%
    04:00 +8°C° 0.3 mm 2 mps 734 mmHg 84%
    05:00 +8°C° 0.3 mm 2 mps 734 mmHg 84%
    06:00 +8°C° 0.3 mm 2 mps 734 mmHg 84%
    07:00 +8°C° 0.3 mm 2 mps 734 mmHg 84%
    08:00 +8°C° 0.2 mm 2 mps 734 mmHg 82%
    09:00 +9°C° 0.2 mm 2 mps 735 mmHg 81%
    10:00 +10°C° 0.2 mm 2 mps 735 mmHg 79%
    11:00 +12°C° 0 mm 2 mps 735 mmHg 75%
    12:00 +13°C° 0 mm 2 mps 735 mmHg 72%
    13:00 +14°C° 0 mm 2 mps 734 mmHg 68%
    14:00 +14°C° 0 mm 2 mps 734 mmHg 70%
    15:00 +13°C° 0 mm 3 mps 734 mmHg 71%
    16:00 +12°C° 0 mm 3 mps 734 mmHg 73%
    17:00 +11°C° 0 mm 3 mps 734 mmHg 76%
    18:00 +10°C° 0 mm 3 mps 734 mmHg 79%
    19:00 +9°C° 0 mm 3 mps 735 mmHg 83%
    20:00 +9°C° 0 mm 3 mps 735 mmHg 82%
    21:00 +8°C° 0 mm 4 mps 735 mmHg 82%
    22:00 +7°C° 0 mm 4 mps 735 mmHg 82%
    23:00 +7°C° 0 mm 4 mps 735 mmHg 82%

    24 February, Saturday

    Time Temperature Precipitation Wind Pressure Humidity
    00:00 +7°C° 0 mm 4 mps 735 mmHg 82%
    01:00 +7°C° 0 mm 4 mps 735 mmHg 82%
    02:00 +7°C° 0 mm 5 mps 734 mmHg 82%
    03:00 +7°C° 0 mm 5 mps 734 mmHg 82%
    04:00 +7°C° 0 mm 5 mps 734 mmHg 82%
    05:00 +7°C° 0.1 mm 5 mps 734 mmHg 83%
    06:00 +7°C° 0.1 mm 4 mps 735 mmHg 83%
    07:00 +7°C° 0.1 mm 4 mps 735 mmHg 83%
    08:00 +7°C° 0.2 mm 4 mps 735 mmHg 82%
    09:00 +8°C° 0.2 mm 4 mps 735 mmHg 81%
    10:00 +8°C° 0.2 mm 4 mps 735 mmHg 81%
    11:00 +8°C° 0.5 mm 4 mps 735 mmHg 81%
    12:00 +9°C° 0.5 mm 3 mps 735 mmHg 81%
    13:00 +9°C° 0.5 mm 3 mps 735 mmHg 81%
    14:00 +9°C° 0.4 mm 3 mps 735 mmHg 81%
    15:00 +8°C° 0.4 mm 4 mps 735 mmHg 80%
    16:00 +7°C° 0.4 mm 4 mps 735 mmHg 80%
    17:00 +7°C° 0.2 mm 4 mps 735 mmHg 81%
    18:00 +6°C° 0.2 mm 4 mps 736 mmHg 82%
    19:00 +5°C° 0.2 mm 4 mps 736 mmHg 82%
    20:00 +5°C° 0.2 mm 4 mps 736 mmHg 82%
    21:00 +4°C° 0.2 mm 4 mps 736 mmHg 82%
    22:00 +2°C° 0.2 mm 5 mps 737 mmHg 81%
    23:00 +2°C° 0.2 mm 5 mps 737 mmHg 81%

    25 February, Sunday

    Time Temperature Precipitation Wind Pressure Humidity
    00:00 +1°C° 0.2 mm 5 mps 737 mmHg 80%
    01:00 +1°C° 0.2 mm 5 mps 737 mmHg 80%
    02:00 0°C° 0.2 mm 5 mps 736 mmHg 80%
    03:00 0°C° 0.2 mm 4 mps 736 mmHg 80%
    04:00 0°C° 0.2 mm 4 mps 736 mmHg 80%
    05:00 0°C° 0.2 mm 4 mps 736 mmHg 79%
    06:00 0°C° 0.2 mm 4 mps 736 mmHg 78%
    07:00 0°C° 0.2 mm 4 mps 736 mmHg 78%
    08:00 +1°C° 0.1 mm 4 mps 736 mmHg 76%
    09:00 +3°C° 0.1 mm 4 mps 736 mmHg 74%
    10:00 +4°C° 0.1 mm 4 mps 736 mmHg 72%
    11:00 +4°C° 0.2 mm 3 mps 735 mmHg 73%
    12:00 +5°C° 0.2 mm 3 mps 735 mmHg 73%
    13:00 +7°C° 0.2 mm 3 mps 734 mmHg 74%
    14:00 +5°C° 0.4 mm 3 mps 734 mmHg 76%
    15:00 +5°C° 0.4 mm 3 mps 734 mmHg 78%
    16:00 +5°C° 0.4 mm 3 mps 734 mmHg 79%
    17:00 +4°C° 0.7 mm 3 mps 734 mmHg 81%
    18:00 +3°C° 0.7 mm 3 mps 734 mmHg 83%
    19:00 +3°C° 0.7 mm 4 mps 734 mmHg 85%
    20:00 +1°C° 1.5 mm 4 mps 734 mmHg 87%
    21:00 +1°C° 1.5 mm 4 mps 733 mmHg 88%
    22:00 +1°C° 1.5 mm 4 mps 733 mmHg 90%
    23:00 0°C° 2.7 mm 4 mps 733 mmHg 90%
    Show more